SES-3                   
1 37748U 11035A   19266.03799231 -.00000111  00000-0  00000+0 0  9990
2 37748   0.0028 200.2331 0002381 357.5101  74.5476  1.00271244 30038
KAZSAT-2                
1 37749U 11035B   19266.09750319 -.00000207  00000-0  00000+0 0  9997
2 37749   0.0358 299.9999 0001390 234.8642 308.4081  1.00270262 29911
BREEZE-M DEB [TANK]     
1 37750U 11035C   19264.41550295 -.00000172  00000-0 -11684-3 0  9990
2 37750  45.4962  29.8559 6383265 295.2927  13.2377  3.30914030 98712
BREEZE-M R/B            
1 37751U 11035D   19265.99622043 -.00000167  00000-0  00000+0 0  9995
2 37751   5.5329  55.8438 0761789 352.7350  29.8480  1.12713802 33715
BREEZE-M DEB [ADAPTOR]  
1 37787U 11035E   19265.82884120  .00000062  00000-0  00000+0 0  9995
2 37787  24.1424 124.8827 6127047 171.1192 187.1055  2.06007848 59682